"startDT [UTC]","vpos","CH4 [ppm]","stdev(CH4) [ppm]","CO2 [ppm]","stdev(CO2) [ppm]","H2O_reported [%]","stdev(H2O_reported)","CavityPressure [torr]","CavityTemp [C]","OutletValve","CH4_dry [ppm]","CO2_dry [ppm]","DasTemp [C]","EtalonTemp [C]","WarmBoxTemp [C]","MPVPosition","T_ECpre [C]","T_EC1 [C]","T_EC2 [C]","p_inlet [hPa]","p_in [hPa]","p_out [hPa]","T_inlet [C]","RH_inlet [%]","dwpt_inlet [C]","T_vent [C]","RH_vent [%]","dwpt_vent [C]","flow_vent [l min-1]","flow_inlet [l min-1]","dwpt_sample [C]","T_room [C]"
2016-01-16 00:00:00,3.0,1.88148,0.01676,399.043,2.326,0.0134,0.0185,139.992,45.000,31574.64003,1.88337,399.237,31.989,45.071,45.000,0.00,0.08,-272.74,-272.80,-2,504,-963,17.9,2.3,-30.9,18.1,2.3,-30.5,5.73,1.88,-19.0,24.5
2016-01-16 00:01:00,3.0,1.87655,0.00032,397.168,0.043,0.0025,0.0020,139.999,45.000,31566.40321,1.87662,397.182,31.999,45.071,45.000,0.00,0.08,-272.76,-272.81,-4,503,-963,17.9,2.3,-31.0,18.1,2.3,-30.5,5.73,2.22,-19.0,24.6
2016-01-16 00:02:00,3.0,1.87634,0.00039,397.423,0.106,0.0043,0.0019,139.996,45.000,31562.69286,1.87644,397.437,32.002,45.070,45.000,0.00,0.08,-272.75,-272.80,-2,503,-963,17.9,2.3,-30.9,18.2,2.3,-30.5,5.73,1.83,-19.0,24.6
2016-01-16 00:03:00,3.0,1.87631,0.00030,397.615,0.037,0.0032,0.0023,139.998,45.000,31561.56459,1.87637,397.630,32.005,45.070,45.000,0.00,0.08,-272.75,-272.80,-3,503,-963,17.9,2.3,-30.9,18.2,2.3,-30.4,5.73,2.23,-19.0,24.6
2016-01-16 00:04:00,3.0,1.87613,0.00034,397.619,0.027,0.0028,0.0021,139.998,45.000,31560.65840,1.87619,397.632,32.001,45.070,45.000,0.00,0.08,-272.76,-272.81,-3,503,-963,17.9,2.3,-30.8,18.2,2.3,-30.3,5.73,1.83,-19.0,24.6
2016-01-16 00:05:00,3.0,1.87599,0.00029,397.598,0.029,0.0016,0.0017,139.996,45.000,31561.71698,1.87601,397.606,32.000,45.070,45.000,0.00,0.08,-272.76,-272.81,-2,503,-963,17.9,2.3,-30.8,18.2,2.4,-30.3,5.73,2.23,-19.0,24.6
2016-01-16 00:06:00,3.0,1.87604,0.00032,397.624,0.027,0.0017,0.0021,139.999,45.000,31562.11140,1.87607,397.632,32.002,45.070,45.000,0.00,0.08,-272.73,-272.81,-4,503,-963,17.9,2.3,-30.8,18.2,2.4,-30.2,5.73,1.83,-19.0,24.6
2016-01-16 00:07:00,3.0,1.87614,0.00035,397.615,0.024,0.0021,0.0020,140.000,45.000,31563.45923,1.87617,397.624,32.001,45.071,45.000,0.00,0.08,-272.75,-272.80,-2,503,-963,18.0,2.3,-30.7,18.2,2.4,-30.2,5.73,2.22,-19.0,24.6
2016-01-16 00:08:00,3.0,1.87614,0.00035,397.610,0.033,0.0012,0.0017,139.999,45.000,31562.87218,1.87618,397.616,31.983,45.071,45.000,0.00,0.08,-272.75,-272.81,-4,504,-963,18.0,2.3,-30.6,18.2,2.4,-30.1,5.73,1.84,-19.0,24.6
2016-01-16 00:09:00,3.0,1.87601,0.00028,397.609,0.028,0.0005,0.0015,139.998,45.000,31564.71158,1.87600,397.613,31.963,45.071,45.000,0.00,0.08,-272.75,-272.80,-2,504,-963,18.0,2.3,-30.4,18.3,2.4,-30.1,5.73,2.21,-19.0,24.6
2016-01-16 00:10:00,3.0,1.87614,0.00030,397.638,0.031,0.0012,0.0020,139.999,45.000,31565.24812,1.87617,397.643,31.982,45.071,45.000,0.00,0.08,-272.74,-272.80,-3,504,-963,18.1,2.3,-30.4,18.3,2.4,-30.0,5.73,1.85,-19.0,24.6
2016-01-16 00:11:00,3.0,1.87595,0.00029,397.620,0.033,0.0004,0.0018,139.997,45.000,31567.00229,1.87596,397.623,31.974,45.071,45.000,0.00,0.08,-272.76,-272.81,-3,504,-963,18.1,2.3,-30.4,18.3,2.4,-29.9,5.73,2.19,-19.0,24.6
2016-01-16 00:12:00,3.0,1.87611,0.00026,397.625,0.029,0.0007,0.0015,140.000,45.000,31568.08319,1.87612,397.627,31.965,45.071,45.000,0.00,0.08,-272.75,-272.82,-2,504,-963,18.1,2.3,-30.5,18.3,2.4,-30.0,5.73,1.89,-19.0,24.6
2016-01-16 00:13:00,3.0,1.87619,0.00038,397.633,0.025,-0.0001,0.0019,139.999,45.000,31569.07438,1.87618,397.633,31.947,45.071,45.000,0.00,0.08,-272.75,-272.80,-4,505,-963,18.2,2.2,-30.8,18.4,2.3,-30.3,5.73,2.16,-19.0,24.6
2016-01-16 00:14:00,3.0,1.87619,0.00036,397.619,0.028,-0.0006,0.0012,139.999,45.000,31570.34931,1.87619,397.616,31.938,45.071,45.000,0.00,0.08,-272.75,-272.81,-2,505,-963,18.2,2.1,-31.3,18.4,2.2,-30.7,5.73,1.92,-19.0,24.6
2016-01-16 00:15:00,3.0,1.87601,0.00047,397.621,0.022,-0.0007,0.0019,139.998,45.000,31572.81829,1.87603,397.618,31.939,45.071,45.000,0.00,0.08,-272.76,-272.80,-4,505,-963,18.2,2.1,-31.6,18.4,2.2,-31.0,5.73,2.12,-19.0,24.7
2016-01-16 00:16:00,3.0,1.87615,0.00035,397.629,0.027,-0.0008,0.0017,140.000,45.000,31573.59491,1.87609,397.625,31.937,45.071,45.000,0.00,0.08,-272.74,-272.80,-3,505,-963,18.2,2.1,-31.6,18.5,2.2,-31.0,5.73,1.96,-19.0,24.7
2016-01-16 00:17:00,3.0,1.87637,0.00030,397.649,0.025,0.0003,0.0014,139.998,45.000,31573.13202,1.87637,397.651,31.938,45.071,45.000,0.00,0.08,-272.75,-272.80,-3,505,-963,18.3,2.1,-31.3,18.5,2.2,-30.9,5.73,2.08,-19.0,24.7
2016-01-16 00:18:00,3.0,1.87616,0.00037,397.638,0.027,0.0002,0.0019,139.999,45.000,31576.50049,1.87616,397.639,31.947,45.071,45.000,0.00,0.08,-272.75,-272.81,-4,506,-963,18.3,2.1,-31.2,18.5,2.2,-30.7,5.73,1.99,-19.0,24.7
2016-01-16 00:19:00,3.0,1.87642,0.00050,397.631,0.028,0.0001,0.0012,139.998,45.000,31575.22456,1.87645,397.631,31.943,45.071,45.000,0.00,0.08,-272.75,-272.80,-2,506,-963,18.4,2.2,-31.1,18.5,2.2,-30.6,5.73,2.04,-19.0,24.7
2016-01-16 00:20:00,0.0,1.92175,0.01776,403.901,2.453,0.0407,0.0198,140.000,45.000,31634.19408,1.92074,403.971,31.939,45.071,45.000,0.00,0.08,-272.74,-272.80,-5,515,-963,18.4,2.2,-31.0,18.6,2.3,-30.5,5.73,2.04,-19.0,24.7
2016-01-16 00:21:00,0.0,1.92873,0.00065,404.905,0.064,0.0546,0.0017,140.000,45.000,31650.61836,1.92981,405.174,31.938,45.071,45.000,0.00,0.08,-272.75,-272.80,-4,516,-963,18.4,2.2,-30.8,18.6,2.3,-30.4,5.73,1.89,-19.0,24.8
2016-01-16 00:22:00,0.0,1.92883,0.00051,404.869,0.036,0.0549,0.0012,140.000,45.000,31655.49694,1.92982,405.133,31.938,45.070,45.000,0.00,0.08,-272.75,-272.80,-4,516,-963,18.4,2.2,-30.9,18.6,2.3,-30.3,5.73,2.25,-19.0,24.8
2016-01-16 00:23:00,0.0,1.92926,0.00030,404.937,0.037,0.0541,0.0019,139.997,45.000,31655.21738,1.93031,405.201,31.937,45.070,45.000,0.00,0.09,-272.74,-272.81,-5,516,-963,18.5,2.2,-31.0,18.7,2.3,-30.4,5.73,1.88,-19.0,24.8
2016-01-16 00:24:00,0.0,1.92835,0.00051,404.854,0.041,0.0535,0.0015,140.000,45.000,31659.95123,1.92936,405.115,31.924,45.070,45.000,0.00,0.08,-272.76,-272.80,-4,517,-963,18.5,2.1,-31.1,18.6,2.2,-30.5,5.73,2.12,-19.0,24.8
2016-01-16 00:25:00,0.0,1.92893,0.00067,404.909,0.050,0.0524,0.0014,139.998,45.000,31660.96277,1.92997,405.167,31.889,45.070,45.000,0.00,0.08,-272.75,-272.81,-4,517,-963,18.5,2.1,-31.3,18.7,2.2,-30.6,5.73,2.10,-18.9,24.8
2016-01-16 00:26:00,0.0,1.92693,0.00078,404.730,0.049,0.0530,0.0013,139.999,45.000,31662.50096,1.92791,404.986,31.888,45.071,45.000,0.00,0.09,-272.75,-272.80,-5,517,-963,18.5,2.1,-31.3,18.7,2.2,-30.8,5.73,1.90,-19.0,24.8
2016-01-16 00:27:00,0.0,1.92783,0.00059,404.819,0.048,0.0524,0.0017,139.998,45.000,31663.79724,1.92886,405.074,31.885,45.071,45.000,0.00,0.08,-272.75,-272.80,-4,517,-963,18.5,2.1,-31.3,18.7,2.2,-30.8,5.73,2.25,-18.9,24.8
2016-01-16 00:28:00,0.0,1.92804,0.00037,404.821,0.036,0.0539,0.0020,140.000,45.000,31665.70040,1.92900,405.082,31.909,45.071,45.000,0.00,0.08,-272.76,-272.81,-4,517,-963,18.5,2.1,-31.2,18.7,2.2,-30.7,5.73,1.88,-18.9,24.8
2016-01-16 00:29:00,0.0,1.92826,0.00032,404.868,0.039,0.0557,0.0018,139.999,45.000,31668.24203,1.92936,405.140,31.917,45.071,45.000,0.00,0.09,-272.75,-272.80,-5,518,-963,18.5,2.2,-30.9,18.7,2.2,-30.4,5.73,2.14,-18.9,24.8
2016-01-16 00:30:00,0.0,1.92847,0.00039,404.853,0.039,0.0584,0.0014,140.000,45.000,31669.62702,1.92954,405.138,31.906,45.071,45.000,0.00,0.08,-272.75,-272.81,-4,518,-963,18.5,2.3,-30.5,18.7,2.3,-30.2,5.73,2.07,-18.9,24.8
2016-01-16 00:31:00,0.0,1.92822,0.00029,404.892,0.051,0.0598,0.0018,140.000,45.000,31671.26376,1.92938,405.182,31.915,45.071,45.000,0.00,0.08,-272.75,-272.81,-5,517,-963,18.5,2.3,-30.2,18.7,2.4,-29.9,5.73,1.92,-19.0,24.8
2016-01-16 00:32:00,0.0,1.92810,0.00036,404.854,0.029,0.0611,0.0020,139.998,45.000,31672.96456,1.92926,405.151,31.909,45.070,45.000,0.00,0.08,-272.75,-272.81,-5,518,-963,18.4,2.4,-29.9,18.7,2.4,-29.5,5.73,2.24,-18.9,24.8
2016-01-16 00:33:00,0.0,1.92823,0.00044,404.870,0.036,0.0636,0.0025,140.001,45.000,31674.78812,1.92943,405.181,31.893,45.071,45.000,0.00,0.09,-272.74,-272.80,-4,518,-963,18.5,2.5,-29.6,18.7,2.5,-29.2,5.73,1.85,-18.9,24.8
2016-01-16 00:34:00,0.0,1.92833,0.00033,404.873,0.035,0.0640,0.0022,140.002,45.000,31672.55661,1.92952,405.182,31.917,45.070,45.000,0.00,0.08,-272.76,-272.80,-5,518,-963,18.5,2.5,-29.3,18.7,2.6,-29.0,5.73,2.19,-18.9,24.8
2016-01-16 00:35:00,0.0,1.92807,0.00045,404.849,0.051,0.0634,0.0017,140.000,45.000,31671.62700,1.92927,405.157,31.938,45.070,45.000,0.00,0.08,-272.75,-272.82,-5,518,-963,18.4,2.5,-29.5,18.7,2.6,-29.0,5.73,2.01,-18.9,24.8
2016-01-16 00:36:00,0.0,1.92813,0.00030,404.875,0.026,0.0601,0.0014,139.997,45.000,31672.56764,1.92930,405.169,31.947,45.070,45.000,0.00,0.09,-272.75,-272.81,-4,518,-963,18.4,2.4,-29.9,18.7,2.5,-29.4,5.73,1.98,-18.9,24.8
2016-01-16 00:37:00,0.0,1.92799,0.00031,404.882,0.035,0.0584,0.0017,139.998,45.002,31675.92456,1.92911,405.166,31.978,45.070,45.000,0.00,0.08,-272.75,-272.81,-5,518,-963,18.4,2.3,-30.3,18.7,2.4,-29.8,5.73,2.21,-18.9,24.8
2016-01-16 00:38:00,0.0,1.92789,0.00034,404.875,0.028,0.0606,0.0016,139.997,45.002,31680.26707,1.92903,405.170,31.980,45.070,45.000,0.00,0.08,-272.75,-272.81,-5,518,-963,18.4,2.3,-30.2,18.7,2.4,-29.8,5.73,1.85,-18.9,24.8
2016-01-16 00:39:00,0.0,1.92814,0.00035,404.854,0.027,0.0608,0.0013,139.998,45.002,31683.78278,1.92929,405.149,31.999,45.070,44.999,0.00,0.08,-272.76,-272.80,-4,518,-963,18.4,2.4,-30.0,18.7,2.4,-29.6,5.73,2.22,-18.9,24.8
2016-01-16 00:40:00,0.0,1.92826,0.00042,404.883,0.032,0.0620,0.0017,140.000,45.002,31684.69273,1.92943,405.186,32.008,45.070,45.000,0.00,0.09,-272.75,-272.80,-5,518,-963,18.4,2.5,-29.7,18.7,2.5,-29.3,5.73,1.96,-18.9,24.8
2016-01-16 00:41:00,0.0,1.92811,0.00034,404.843,0.031,0.0631,0.0016,140.001,45.001,31686.21005,1.92932,405.149,32.003,45.070,44.999,0.00,0.08,-272.76,-272.80,-4,518,-963,18.4,2.5,-29.5,18.6,2.5,-29.2,5.73,2.03,-19.0,24.8
2016-01-16 00:42:00,0.0,1.92785,0.00041,404.823,0.028,0.0632,0.0017,139.999,45.000,31685.60342,1.92905,405.131,32.000,45.070,45.000,0.00,0.08,-272.75,-272.81,-4,518,-963,18.4,2.5,-29.6,18.6,2.6,-29.1,5.73,2.17,-18.9,24.8
2016-01-16 00:43:00,0.0,1.92827,0.00034,404.850,0.043,0.0614,0.0020,139.999,44.999,31684.34625,1.92941,405.148,31.994,45.070,45.000,0.00,0.09,-272.74,-272.80,-5,518,-963,18.3,2.4,-29.9,18.6,2.5,-29.3,5.73,1.86,-18.9,24.8
2016-01-16 00:44:00,0.0,1.92851,0.00027,404.866,0.031,0.0611,0.0014,139.998,44.999,31681.68569,1.92967,405.164,31.960,45.070,45.000,0.00,0.08,-272.76,-272.80,-4,518,-963,18.3,2.4,-29.9,18.6,2.5,-29.4,5.73,2.24,-18.9,24.8
2016-01-16 00:45:00,0.0,1.92864,0.00033,404.870,0.030,0.0616,0.0018,140.000,44.999,31680.82733,1.92981,405.169,31.994,45.071,45.000,0.00,0.08,-272.75,-272.81,-4,518,-963,18.3,2.4,-29.8,18.6,2.5,-29.4,5.73,1.91,-18.9,24.8
2016-01-16 00:46:00,0.0,1.92876,0.00044,404.908,0.035,0.0617,0.0017,139.998,44.999,31680.48676,1.92995,405.209,32.001,45.071,45.000,0.00,0.08,-272.75,-272.80,-5,518,-963,18.3,2.5,-29.8,18.6,2.5,-29.4,5.73,2.09,-18.9,24.8
2016-01-16 00:47:00,0.0,1.92882,0.00035,404.904,0.034,0.0623,0.0017,140.000,44.999,31679.85907,1.92998,405.206,32.000,45.071,45.000,0.00,0.08,-272.75,-272.81,-4,518,-963,18.3,2.5,-29.7,18.6,2.5,-29.2,5.73,2.13,-18.9,24.8
2016-01-16 00:48:00,0.0,1.92864,0.00027,404.889,0.030,0.0623,0.0021,140.001,44.999,31680.68470,1.92984,405.192,32.000,45.070,45.000,0.00,0.08,-272.75,-272.81,-4,517,-963,18.2,2.5,-29.7,18.6,2.5,-29.2,5.73,1.89,-18.9,24.8
2016-01-16 00:49:00,0.0,1.92874,0.00039,404.891,0.021,0.0630,0.0014,139.999,44.999,31679.22322,1.92993,405.199,31.997,45.071,45.000,0.00,0.08,-272.75,-272.81,-5,518,-963,18.2,2.5,-29.7,18.6,2.6,-29.1,5.73,2.25,-18.9,24.8
2016-01-16 00:50:00,0.0,1.92897,0.00039,404.920,0.035,0.0625,0.0014,139.999,44.999,31677.04792,1.93016,405.223,31.992,45.070,45.000,0.00,0.08,-272.74,-272.81,-4,518,-963,18.2,2.5,-29.7,18.6,2.6,-29.2,5.73,1.88,-18.9,24.8
2016-01-16 00:51:00,0.0,1.92865,0.00034,404.872,0.025,0.0628,0.0014,139.997,44.999,31677.09633,1.92987,405.178,31.958,45.071,45.000,0.00,0.08,-272.75,-272.81,-5,518,-963,18.2,2.5,-29.6,18.5,2.6,-29.2,5.73,2.14,-18.9,24.8
2016-01-16 00:52:00,0.0,1.92902,0.00039,404.911,0.025,0.0631,0.0016,139.997,44.999,31674.80432,1.93018,405.218,31.941,45.071,45.000,0.00,0.08,-272.75,-272.81,-5,518,-963,18.2,2.5,-29.6,18.5,2.6,-29.2,5.73,2.08,-19.0,24.8
2016-01-16 00:53:00,0.0,1.92924,0.00035,404.939,0.025,0.0637,0.0015,139.998,45.000,31674.79012,1.93044,405.249,31.938,45.071,45.000,0.00,0.09,-272.75,-272.81,-3,518,-963,18.2,2.5,-29.5,18.5,2.6,-29.0,5.73,1.91,-19.0,24.8
2016-01-16 00:54:00,0.0,1.92953,0.00031,404.954,0.025,0.0644,0.0017,139.999,45.000,31674.02888,1.93075,405.266,31.937,45.071,45.000,0.00,0.08,-272.75,-272.81,-5,517,-963,18.2,2.6,-29.3,18.5,2.6,-29.0,5.73,2.25,-19.0,24.8
2016-01-16 00:55:00,0.0,1.92979,0.00038,404.971,0.029,0.0662,0.0019,140.000,45.000,31671.25490,1.93103,405.293,31.937,45.071,45.000,0.00,0.08,-272.75,-272.81,-5,518,-963,18.1,2.6,-29.4,18.5,2.6,-28.9,5.73,1.86,-19.0,24.8
2016-01-16 00:56:00,0.0,1.92974,0.00039,404.975,0.034,0.0654,0.0013,139.997,45.000,31671.81211,1.93100,405.294,31.938,45.071,45.000,0.00,0.08,-272.75,-272.80,-3,517,-963,18.1,2.6,-29.2,18.5,2.7,-28.8,5.73,2.18,-19.0,24.7
2016-01-16 00:57:00,0.0,1.92946,0.00043,404.959,0.031,0.0664,0.0012,139.999,45.000,31673.45077,1.93072,405.283,31.950,45.071,45.000,0.00,0.08,-272.74,-272.80,-5,517,-963,18.1,2.6,-29.2,18.5,2.7,-28.8,5.73,2.03,-18.9,24.7
2016-01-16 00:58:00,0.0,1.92933,0.00027,404.959,0.027,0.0663,0.0019,140.000,45.000,31671.24629,1.93061,405.282,31.961,45.071,45.000,0.00,0.08,-272.76,-272.80,-4,518,-963,18.1,2.6,-29.2,18.4,2.7,-28.8,5.73,1.96,-19.0,24.7
2016-01-16 00:59:00,0.0,1.92924,0.00038,404.935,0.021,0.0650,0.0016,140.000,45.000,31670.89498,1.93046,405.253,31.963,45.070,45.000,0.00,0.08,-272.75,-272.81,-4,517,-963,18.1,2.6,-29.3,18.5,2.7,-28.8,5.73,2.22,-19.0,24.7
2016-01-16 01:00:00,0.0,1.92930,0.00038,404.925,0.027,0.0647,0.0014,139.998,45.000,31669.79398,1.93055,405.240,31.951,45.070,45.000,0.00,0.09,-272.75,-272.80,-5,517,-963,18.1,2.6,-29.4,18.4,2.6,-28.9,5.73,1.85,-19.0,24.7
2016-01-16 01:01:00,0.0,1.92910,0.00045,404.910,0.030,0.0657,0.0017,139.997,45.000,31667.91342,1.93033,405.229,31.957,45.071,45.000,0.00,0.08,-272.75,-272.80,-4,517,-963,18.1,2.6,-29.3,18.4,2.6,-28.9,5.73,2.22,-19.0,24.7
2016-01-16 01:02:00,0.0,1.92927,0.00040,404.931,0.030,0.0667,0.0021,140.000,45.000,31668.90891,1.93054,405.256,31.971,45.071,45.000,0.00,0.08,-272.75,-272.81,-4,517,-963,18.1,2.6,-29.2,18.4,2.7,-28.9,5.73,1.97,-19.0,24.7
2016-01-16 01:03:00,0.0,1.92938,0.00043,404.943,0.028,0.0661,0.0017,139.999,45.000,31668.24270,1.93062,405.265,31.978,45.070,45.000,0.00,0.08,-272.75,-272.80,-5,517,-963,18.1,2.6,-29.2,18.4,2.7,-28.7,5.73,2.02,-19.0,24.7
2016-01-16 01:04:00,0.0,1.92956,0.00037,404.954,0.034,0.0668,0.0019,140.000,45.000,31668.03189,1.93083,405.280,31.973,45.070,45.000,0.00,0.08,-272.75,-272.80,-4,517,-963,18.0,2.7,-29.1,18.4,2.7,-28.7,5.73,2.19,-19.0,24.7
2016-01-16 01:05:00,0.0,1.92911,0.00040,404.907,0.034,0.0670,0.0018,139.999,45.000,31669.61510,1.93039,405.233,31.954,45.070,45.000,0.00,0.08,-272.75,-272.81,-4,517,-963,18.1,2.7,-29.1,18.4,2.7,-28.6,5.73,1.85,-19.0,24.7
2016-01-16 01:06:00,0.0,1.92933,0.00043,404.917,0.037,0.0662,0.0019,140.000,45.000,31668.65747,1.93058,405.239,31.938,45.070,45.000,0.00,0.08,-272.75,-272.80,-5,517,-963,18.1,2.6,-29.1,18.4,2.7,-28.7,5.73,2.24,-19.0,24.6
2016-01-16 01:07:00,0.0,1.92975,0.00046,404.961,0.046,0.0663,0.0020,139.997,45.000,31667.35289,1.93101,405.283,31.933,45.071,45.000,0.00,0.08,-272.74,-272.81,-4,517,-963,18.1,2.6,-29.2,18.4,2.7,-28.7,5.73,1.95,-19.0,24.7
2016-01-16 01:08:00,0.0,1.92952,0.00031,404.926,0.040,0.0661,0.0017,139.998,45.000,31669.08297,1.93077,405.248,31.916,45.071,45.000,0.00,0.08,-272.76,-272.81,-4,517,-963,18.0,2.6,-29.3,18.4,2.7,-28.8,5.73,2.04,-19.0,24.7
2016-01-16 01:09:00,0.0,1.92959,0.00039,404.938,0.033,0.0659,0.0020,139.999,45.000,31668.44253,1.93085,405.260,31.936,45.071,45.000,0.00,0.08,-272.75,-272.80,-5,517,-963,18.0,2.6,-29.3,18.3,2.7,-28.9,5.73,2.17,-19.0,24.7
2016-01-16 01:10:00,0.0,1.92934,0.00039,404.922,0.030,0.0660,0.0021,140.000,45.000,31668.73234,1.93063,405.243,31.936,45.071,45.000,0.00,0.08,-272.74,-272.79,-3,517,-963,18.0,2.6,-29.3,18.3,2.7,-28.8,5.73,1.86,-19.0,24.7
2016-01-16 01:11:00,0.0,1.92961,0.00032,404.941,0.030,0.0666,0.0018,140.001,45.000,31668.17194,1.93083,405.265,31.938,45.071,45.000,0.00,0.08,-272.76,-272.80,-4,517,-963,18.0,2.6,-29.2,18.3,2.7,-28.8,5.73,2.25,-19.0,24.7
2016-01-16 01:12:00,0.0,1.92948,0.00052,404.940,0.035,0.0670,0.0016,139.997,45.000,31667.40851,1.93076,405.265,31.927,45.071,45.000,0.00,0.08,-272.75,-272.81,-5,517,-963,18.0,2.6,-29.2,18.3,2.7,-28.7,5.73,1.93,-19.0,24.7
2016-01-16 01:13:00,0.0,1.92950,0.00039,404.932,0.022,0.0666,0.0017,139.999,45.000,31668.18805,1.93076,405.257,31.905,45.071,45.000,0.00,0.08,-272.75,-272.80,-3,517,-963,18.0,2.7,-29.2,18.3,2.7,-28.6,5.73,2.07,-19.0,24.7
2016-01-16 01:14:00,0.0,1.92920,0.00051,404.918,0.026,0.0659,0.0023,140.000,45.000,31667.93948,1.93046,405.239,31.905,45.071,45.000,0.00,0.08,-272.75,-272.81,-4,517,-963,18.0,2.6,-29.2,18.3,2.7,-28.8,5.73,2.16,-19.0,24.7
2016-01-16 01:15:00,0.0,1.92951,0.00049,404.921,0.029,0.0653,0.0014,139.998,45.000,31665.81363,1.93075,405.239,31.935,45.071,45.000,0.00,0.08,-272.75,-272.81,-5,517,-963,18.0,2.6,-29.4,18.3,2.7,-28.8,5.73,1.87,-19.0,24.7
2016-01-16 01:16:00,0.0,1.92941,0.00039,404.903,0.028,0.0643,0.0021,139.999,45.000,31667.04277,1.93061,405.216,31.940,45.070,45.000,0.00,0.08,-272.75,-272.80,-3,517,-963,18.0,2.6,-29.4,18.3,2.7,-28.9,5.73,2.25,-19.0,24.6
2016-01-16 01:17:00,0.0,1.92931,0.00060,404.912,0.042,0.0644,0.0016,140.000,45.000,31666.41640,1.93058,405.226,31.962,45.070,45.000,0.00,0.08,-272.74,-272.80,-5,517,-963,18.0,2.6,-29.4,18.3,2.6,-29.0,5.73,1.91,-19.0,24.6
2016-01-16 01:18:00,0.0,1.92864,0.00042,404.859,0.028,0.0653,0.0021,140.000,45.000,31666.50892,1.92985,405.177,31.980,45.070,45.000,0.00,0.08,-272.76,-272.80,-5,517,-963,18.0,2.6,-29.4,18.3,2.6,-29.0,5.73,2.09,-19.0,24.6
2016-01-16 01:19:00,0.0,1.92859,0.00035,404.835,0.035,0.0655,0.0017,140.000,45.000,31664.26949,1.92985,405.155,31.997,45.070,45.000,0.00,0.08,-272.76,-272.81,-3,517,-963,18.0,2.6,-29.3,18.3,2.7,-28.9,5.73,2.14,-19.0,24.6
2016-01-16 01:20:00,0.0,1.92878,0.00042,404.858,0.034,0.0668,0.0018,140.002,45.000,31665.64320,1.93004,405.183,31.973,45.070,44.999,0.00,0.09,-272.74,-272.80,-5,516,-963,17.9,2.6,-29.2,18.3,2.7,-28.8,5.73,1.88,-19.0,24.6
2016-01-16 01:21:00,0.0,1.92882,0.00030,404.881,0.039,0.0674,0.0026,139.999,45.000,31663.56392,1.93011,405.208,31.963,45.070,45.000,0.00,0.08,-272.75,-272.80,-5,517,-963,17.9,2.7,-29.2,18.3,2.7,-28.7,5.73,2.25,-19.0,24.6
2016-01-16 01:22:00,0.0,1.92889,0.00033,404.875,0.023,0.0679,0.0016,140.002,45.000,31665.14471,1.93017,405.206,31.983,45.070,45.000,0.00,0.08,-272.75,-272.81,-3,517,-963,17.9,2.7,-29.1,18.3,2.7,-28.7,5.73,1.90,-19.0,24.6
2016-01-16 01:23:00,0.0,1.92924,0.00028,404.872,0.030,0.0680,0.0019,140.001,45.000,31665.64569,1.93053,405.204,31.973,45.070,45.000,0.00,0.08,-272.76,-272.80,-5,516,-963,17.9,2.7,-29.0,18.3,2.7,-28.6,5.73,2.11,-19.0,24.6
2016-01-16 01:24:00,0.0,1.92875,0.00039,404.859,0.040,0.0681,0.0017,139.999,45.000,31664.33422,1.93005,405.190,31.966,45.070,45.000,0.00,0.08,-272.74,-272.79,-4,517,-963,17.9,2.7,-29.0,18.2,2.8,-28.6,5.73,2.11,-19.0,24.6
2016-01-16 01:25:00,0.0,1.92877,0.00032,404.871,0.028,0.0684,0.0017,139.999,45.000,31664.77158,1.93009,405.205,31.942,45.070,45.000,0.00,0.08,-272.76,-272.81,-3,516,-963,17.9,2.7,-28.9,18.2,2.8,-28.6,5.73,1.90,-19.0,24.6
2016-01-16 01:26:00,0.0,1.92843,0.00030,404.839,0.034,0.0686,0.0017,139.998,45.000,31665.70387,1.92974,405.173,31.938,45.071,45.000,0.00,0.08,-272.75,-272.81,-5,517,-963,17.9,2.7,-28.9,18.2,2.8,-28.5,5.73,2.25,-19.0,24.6
2016-01-16 01:27:00,0.0,1.92852,0.00039,404.825,0.040,0.0685,0.0014,139.998,45.000,31665.58655,1.92982,405.160,31.938,45.071,45.000,0.00,0.08,-272.74,-272.81,-4,517,-963,17.9,2.7,-28.8,18.3,2.8,-28.4,5.73,1.88,-19.0,24.6
2016-01-16 01:28:00,0.0,1.92849,0.00036,404.803,0.046,0.0689,0.0019,139.997,45.000,31663.74740,1.92979,405.137,31.935,45.071,45.000,0.00,0.08,-272.76,-272.81,-3,516,-963,17.9,2.8,-28.8,18.2,2.8,-28.4,5.73,2.14,-19.0,24.6
2016-01-16 01:29:00,0.0,1.92865,0.00043,404.849,0.042,0.0692,0.0014,140.000,45.000,31665.56543,1.92996,405.188,31.935,45.071,45.000,0.00,0.08,-272.75,-272.81,-5,516,-963,17.9,2.8,-28.8,18.2,2.8,-28.4,5.73,2.09,-19.0,24.6
2016-01-16 01:30:00,0.0,1.92856,0.00042,404.835,0.040,0.0698,0.0012,139.999,45.000,31666.13896,1.92991,405.173,31.930,45.071,45.000,0.00,0.08,-272.74,-272.80,-4,517,-963,17.9,2.8,-28.8,18.2,2.8,-28.4,5.73,1.91,-19.0,24.6
2016-01-16 01:31:00,0.0,1.92838,0.00035,404.816,0.028,0.0693,0.0016,140.000,45.000,31665.99360,1.92967,405.153,31.927,45.071,45.000,0.00,0.08,-272.75,-272.81,-4,516,-963,17.9,2.8,-28.7,18.2,2.8,-28.3,5.73,2.25,-19.0,24.6
2016-01-16 01:32:00,0.0,1.92878,0.00037,404.853,0.039,0.0699,0.0019,140.001,45.000,31662.56898,1.93013,405.192,31.938,45.071,45.000,0.00,0.08,-272.75,-272.82,-5,516,-963,17.9,2.8,-28.8,18.2,2.8,-28.3,5.73,1.88,-19.0,24.6
2016-01-16 01:33:00,0.0,1.92890,0.00036,404.874,0.035,0.0689,0.0016,140.000,45.000,31661.88038,1.93019,405.209,31.942,45.070,45.000,0.00,0.08,-272.75,-272.80,-4,516,-963,17.9,2.8,-28.8,18.2,2.8,-28.4,5.73,2.16,-19.0,24.5
2016-01-16 01:34:00,0.0,1.92880,0.00040,404.864,0.027,0.0694,0.0014,140.001,45.000,31663.52489,1.93015,405.203,31.939,45.070,45.000,0.00,0.08,-272.74,-272.80,-4,516,-963,17.9,2.8,-28.8,18.2,2.8,-28.4,5.73,2.07,-19.0,24.6
2016-01-16 01:35:00,0.0,1.92836,0.00039,404.848,0.031,0.0689,0.0012,139.999,45.000,31663.80006,1.92962,405.183,31.938,45.070,45.000,0.00,0.08,-272.76,-272.80,-5,516,-963,17.9,2.8,-28.8,18.2,2.8,-28.4,5.73,1.93,-19.0,24.5
2016-01-16 01:36:00,0.0,1.92868,0.00036,404.853,0.023,0.0685,0.0011,139.999,45.000,31662.03221,1.92999,405.186,31.937,45.070,45.000,0.00,0.08,-272.76,-272.80,-3,516,-963,17.9,2.8,-28.8,18.2,2.8,-28.4,5.73,2.25,-19.0,24.6
2016-01-16 01:37:00,0.0,1.92859,0.00030,404.845,0.036,0.0693,0.0018,140.002,45.000,31663.07778,1.92991,405.183,31.935,45.071,45.000,0.00,0.08,-272.74,-272.80,-4,516,-963,17.9,2.8,-28.8,18.2,2.8,-28.4,5.73,1.86,-19.0,24.5
2016-01-16 01:38:00,0.0,1.92864,0.00035,404.850,0.037,0.0700,0.0017,140.000,45.000,31661.19980,1.92996,405.191,31.937,45.071,45.000,0.00,0.08,-272.75,-272.80,-5,516,-963,17.8,2.8,-28.8,18.2,2.8,-28.3,5.73,2.17,-19.0,24.6
2016-01-16 01:39:00,0.0,1.92881,0.00034,404.850,0.031,0.0702,0.0016,139.998,45.000,31659.85153,1.93014,405.190,31.941,45.071,45.000,0.00,0.08,-272.75,-272.81,-3,516,-963,17.9,2.8,-28.7,18.2,2.8,-28.3,5.73,2.05,-19.0,24.5
2016-01-16 01:40:00,0.0,1.92875,0.00035,404.863,0.023,0.0695,0.0021,140.000,45.000,31660.77929,1.93007,405.202,31.951,45.071,45.000,0.00,0.08,-272.75,-272.80,-4,516,-963,17.9,2.8,-28.7,18.2,2.8,-28.3,5.73,1.94,-19.0,24.5
2016-01-16 01:41:00,0.0,1.92876,0.00021,404.861,0.028,0.0691,0.0017,140.000,45.000,31659.37854,1.93007,405.197,31.976,45.071,45.000,0.00,0.08,-272.74,-272.80,-5,516,-963,17.9,2.8,-28.7,18.2,2.8,-28.3,5.73,2.24,-19.0,24.5
2016-01-16 01:42:00,0.0,1.92896,0.00047,404.884,0.030,0.0697,0.0016,139.999,45.000,31658.11249,1.93027,405.223,31.988,45.070,45.000,0.00,0.08,-272.75,-272.81,-3,516,-963,17.9,2.8,-28.7,18.2,2.8,-28.3,5.73,1.86,-19.0,24.5
2016-01-16 01:43:00,0.0,1.92874,0.00034,404.853,0.026,0.0695,0.0010,139.999,45.000,31659.44871,1.93005,405.193,31.994,45.070,45.000,0.00,0.08,-272.76,-272.80,-4,516,-963,17.9,2.8,-28.7,18.2,2.8,-28.3,5.73,2.18,-19.0,24.5
2016-01-16 01:44:00,0.0,1.92841,0.00044,404.833,0.028,0.0696,0.0017,140.000,45.000,31661.11003,1.92975,405.173,31.987,45.070,45.000,0.00,0.08,-272.74,-272.81,-5,517,-963,17.8,2.8,-28.8,18.2,2.8,-28.3,5.73,2.04,-19.0,24.5
2016-01-16 01:45:00,0.0,1.92877,0.00037,404.870,0.037,0.0693,0.0014,140.001,45.000,31657.85286,1.93010,405.208,31.992,45.070,45.000,0.00,0.08,-272.75,-272.81,-3,516,-963,17.8,2.8,-28.7,18.2,2.8,-28.3,5.73,1.95,-19.1,24.5